#timestamp,LO_Frequency,Hit,StdDev 
1550401215.1,286047001.9,N
1550401235.8,286047001.9,N
1550401255.7,286047000.4,N
1550401275.5,286047000.7,N
1550401295.4,286047002.8,N
1550401315.2,286046999.7,N
1550401335.0,286047002.8,N
1550401335.9,286047002.8,N
1550401355.8,286047001.3,N
1550401375.6,286047003.7,N
1550401395.4,286047003.9,N
1550401415.3,286047000.6,N
1550401435.1,286046998.1,N
1550401455.9,286046999.4,N
1550401475.7,286046999.5,N
1550401495.5,286046999.6,N
1550401515.4,286046996.6,N
1550401535.2,286046996.5,N
1550401555.0,286046997.8,N
1550401555.9,286046997.8,N
1550401575.8,286046997.3,N
1550401595.1,286046997.5,N
1550401596.0,286046997.5,N
1550401615.8,286046994.9,N
1550401635.7,286046995.6,N
1550401655.5,286046995.5,N
1550401675.3,286046995.0,N
1550401695.2,286046995.0,N
1550401715.0,286046999.5,N
1550401715.9,286046999.5,N
1550401735.7,286046998.6,N
1550401755.6,286047001.1,N
1550401775.4,286047000.1,N
1550401795.3,286047002.4,N
1550401815.1,286047004.4,N
1550401816.0,286047004.4,N
1550401835.8,286047004.4,N
1550401855.7,286047001.9,N
1550401875.5,286047002.3,N
1550401895.3,286047000.8,N
1550401915.2,286047001.6,N
1550401935.0,286047002.9,N
1550401935.9,286047002.9,N
1550401955.8,286047003.1,N
1550401975.6,286047003.2,N
1550401995.4,286047002.6,N
1550402015.3,286046998.1,N
1550402035.1,286047001.0,N
1550402055.8,286046998.2,N
1550402075.7,286046999.9,N
1550402095.5,286047001.2,N
1550402115.4,286047002.8,N
1550402135.2,286047002.3,N
1550402155.0,286047002.8,N
1550402155.9,286047002.8,N
1550402175.8,286047000.5,N
1550402195.6,286046998.8,N
1550402215.5,286046999.6,N
1550402235.3,286046999.6,N
1550402255.1,286046996.8,N
1550402275.9,286046998.7,N
1550402295.7,286046998.2,N
1550402315.5,286046999.7,N
1550402335.4,286047002.7,N
1550402355.2,286047004.2,N
1550402375.1,286047000.4,N
1550402376.0,286047000.4,N
1550402395.8,286047000.7,N
1550402415.6,286046998.2,N
1550402435.5,286047002.5,N
1550402455.3,286047002.6,N
1550402475.1,286047000.0,N
1550402495.9,286047000.9,N
1550402515.7,286047002.2,N
1550402535.7,286047002.7,N
1550402555.6,286047002.5,N
1550402575.4,286047005.9,Y
1550402595.3,286047004.1,P
1550402615.1,286047001.8,N
1550402616.0,286047001.8,N
1550402635.8,286047002.1,N
1550402655.7,286047002.6,N
1550402675.5,286046999.4,N
1550402695.4,286047000.4,N
1550402715.2,286047000.2,N
1550402735.0,286047002.4,N
1550402735.9,286047002.4,N
1550402755.8,286047000.1,N
1550402775.6,286047002.3,N
1550402795.4,286046999.7,N
1550402815.3,286047000.2,N
1550402835.1,286046998.6,N
1550402855.9,286046998.9,N
1550402875.7,286046998.5,N
1550402895.5,286047000.7,N
1550402915.4,286047002.8,N
1550402935.2,286047000.3,N
1550402955.0,286047001.9,N
1550402956.0,286047001.9,N
1550402975.8,286046999.8,N
1550402995.6,286046998.2,N
1550403015.5,286047000.9,N
1550403035.3,286046998.2,N
1550403055.1,286047001.0,N
1550403075.9,286047002.1,N
1550403095.7,286046999.8,N
1550403115.6,286046999.7,N
1550403135.4,286047002.2,N
1550403155.2,286047002.2,N
1550403175.1,286047004.4,Y
1550403176.0,286047004.4,P
1550403195.8,286047002.8,N
1550403215.7,286047002.8,N
1550403235.5,286047001.3,N
1550403255.3,286047002.3,N
1550403275.2,286047000.0,N
1550403295.0,286046998.9,N
1550403295.9,286046998.9,N
1550403315.7,286046999.5,N
1550403335.6,286047001.0,N
1550403355.4,286047000.5,N
1550403375.3,286047000.1,N
1550403395.1,286047004.2,N
1550403415.8,286047002.2,N
1550403435.7,286047001.3,N
1550403455.5,286047002.8,N
1550403475.4,286047002.6,N
1550403495.2,286046998.5,N
1550403515.0,286047001.2,N
1550403515.9,286047001.2,N
1550403535.8,286047000.2,N
1550403555.6,286047000.4,N
1550403575.4,286047001.1,N
1550403595.3,286047001.1,N
1550403615.1,286046998.6,N
1550403665.9,286046999.3,E
1550403675.8,286046996.6,N
1550403695.6,286046998.2,P
1550403715.5,286046998.6,N
1550403735.3,286046999.2,N
1550403755.2,286046998.7,N
1550403775.9,286047000.5,N
1550403795.7,286046999.1,N
1550403815.6,286047000.7,N
1550403835.4,286047002.3,N
1550403855.2,286047002.2,N
1550403875.1,286047000.1,N
1550403876.0,286047000.1,N
1550403895.8,286046999.7,N
1550403915.7,286047002.4,N
1550403935.5,286047000.8,N
1550403955.3,286047000.6,N
1550403975.2,286046999.7,N
1550403995.0,286047002.7,N
1550403995.9,286047002.7,N
1550404015.8,286047002.7,N
1550404035.6,286047001.2,N
1550404055.4,286046999.3,N
1550404075.3,286046997.5,N
1550404095.1,286046997.2,N
1550404115.9,286046999.2,N
1550404135.7,286047000.7,N
1550404155.5,286047000.0,N
1550404175.4,286047002.7,N
1550404195.2,286047002.3,N
1550404215.0,286047001.7,N
1550404215.9,286047001.7,N
1550404235.8,286047002.6,N
1550404255.6,286046998.7,N
1550404275.5,286046998.6,N
1550404295.3,286046998.4,N
1550404315.1,286046998.3,N
1550404335.9,286047000.8,N
1550404355.7,286047001.0,N
1550404375.6,286047002.1,N
1550404395.4,286047001.6,N
1550404415.2,286047000.0,N
1550404435.1,286046998.4,N
1550404436.0,286046998.4,N
1550404455.8,286046998.6,N
1550404475.7,286046998.7,N
1550404495.5,286046998.7,N
1550404515.3,286046999.0,N
1550404535.2,286046998.9,N
1550404555.0,286046998.7,N
1550404555.9,286046998.7,N
1550404575.7,286046999.5,N
1550404595.6,286046999.4,N
1550404615.4,286046996.6,N
1550404635.3,286046997.2,N
1550404655.1,286046999.1,N
1550404675.8,286046998.9,N
1550404695.7,286047001.0,N
1550404715.5,286047000.8,N
1550404735.4,286047000.6,N
1550404755.2,286047001.0,N
1550404775.0,286047001.1,N
1550404775.9,286047001.1,N
1550404795.8,286046998.2,N
